Time,TemperatureF,DewpointF,PressureIn,WindDirection,WindDirectionDegrees,WindSpeedMPH,WindSpeedGustMPH,Humidity,HourlyPrecipIn,Conditions,Clouds,dailyrainin,SoftwareType,DateUTC
2013-06-14 00:02:00,65.0,34.0,29.96,NNW,347,0.0,2.0,32,0.00,,,0.00,,2013-06-14 08:02:00,
2013-06-14 00:11:00,65.0,34.0,29.96,NNW,347,0.0,2.0,32,0.00,,,0.00,,2013-06-14 08:11:00,
2013-06-14 00:22:00,64.0,39.0,29.96,NNW,348,0.0,1.0,39,0.00,,,0.00,,2013-06-14 08:22:00,
2013-06-14 00:33:00,64.0,39.0,29.96,NNW,348,0.0,1.0,39,0.00,,,0.00,,2013-06-14 08:33:00,
2013-06-14 00:43:00,59.0,38.0,29.97,NNW,348,0.0,1.0,45,0.00,,,0.00,,2013-06-14 08:43:00,
2013-06-14 00:53:00,59.0,38.0,29.97,NNW,348,0.0,1.0,45,0.00,,,0.00,,2013-06-14 08:53:00,
2013-06-14 01:01:00,58.0,38.0,29.97,NNW,348,0.0,1.0,47,0.00,,,0.00,,2013-06-14 09:01:00,
2013-06-14 01:11:00,58.0,38.0,29.97,NNW,348,0.0,1.0,47,0.00,,,0.00,,2013-06-14 09:11:00,
2013-06-14 01:22:00,56.0,38.0,29.97,NNW,348,0.0,1.0,50,0.00,,,0.00,,2013-06-14 09:22:00,
2013-06-14 01:33:00,55.0,38.0,29.98,NNW,348,0.0,1.0,53,0.00,,,0.00,,2013-06-14 09:33:00,
2013-06-14 01:43:00,54.0,38.0,29.98,NNW,348,0.0,1.0,55,0.00,,,0.00,,2013-06-14 09:43:00,
2013-06-14 01:52:00,54.0,38.0,29.98,NNW,348,0.0,1.0,55,0.00,,,0.00,,2013-06-14 09:52:00,
2013-06-14 02:01:00,53.0,38.0,29.98,NNW,348,0.0,1.0,57,0.00,,,0.00,,2013-06-14 10:01:00,
2013-06-14 02:11:00,53.0,38.0,29.98,NNW,348,0.0,1.0,57,0.00,,,0.00,,2013-06-14 10:11:00,
2013-06-14 02:22:00,52.0,38.0,29.98,NNW,348,0.0,1.0,59,0.00,,,0.00,,2013-06-14 10:22:00,
2013-06-14 02:34:00,52.0,39.0,29.98,NNW,348,0.0,1.0,60,0.00,,,0.00,,2013-06-14 10:34:00,
2013-06-14 02:43:00,51.0,38.0,29.98,NNW,348,0.0,1.0,61,0.00,,,0.00,,2013-06-14 10:43:00,
2013-06-14 02:52:00,51.0,38.0,29.98,NNW,348,0.0,1.0,61,0.00,,,0.00,,2013-06-14 10:52:00,
2013-06-14 03:02:00,51.0,38.0,29.99,NNW,348,0.0,2.0,62,0.00,,,0.00,,2013-06-14 11:02:00,
2013-06-14 03:11:00,51.0,38.0,29.99,NNW,348,0.0,2.0,62,0.00,,,0.00,,2013-06-14 11:11:00,
2013-06-14 03:22:00,50.0,38.0,29.99,NNW,348,0.0,1.0,64,0.00,,,0.00,,2013-06-14 11:22:00,
2013-06-14 03:32:00,50.0,39.0,29.99,NNW,348,0.0,1.0,66,0.00,,,0.00,,2013-06-14 11:32:00,
2013-06-14 03:43:00,49.0,39.0,29.99,NNW,348,0.0,1.0,68,0.00,,,0.00,,2013-06-14 11:43:00,
2013-06-14 03:52:00,49.0,39.0,29.99,NNW,348,0.0,1.0,68,0.00,,,0.00,,2013-06-14 11:52:00,
2013-06-14 04:01:00,49.0,39.0,29.99,NNW,348,0.0,1.0,69,0.00,,,0.00,,2013-06-14 12:01:00,
2013-06-14 04:11:00,49.0,39.0,29.99,NNW,348,0.0,1.0,69,0.00,,,0.00,,2013-06-14 12:11:00,
2013-06-14 04:22:00,48.0,38.0,30.00,NNW,348,0.0,1.0,69,0.00,,,0.00,,2013-06-14 12:22:00,
2013-06-14 04:32:00,48.0,38.0,30.00,NNW,348,0.0,1.0,69,0.00,,,0.00,,2013-06-14 12:32:00,
2013-06-14 04:43:00,48.0,39.0,30.00,NNW,348,0.0,1.0,70,0.00,,,0.00,,2013-06-14 12:43:00,
2013-06-14 04:52:00,48.0,39.0,30.00,NNW,348,0.0,1.0,70,0.00,,,0.00,,2013-06-14 12:52:00,
2013-06-14 05:02:00,48.0,39.0,30.00,NNW,348,0.0,1.0,71,0.00,,,0.00,,2013-06-14 13:02:00,
2013-06-14 05:11:00,48.0,39.0,30.00,NNW,348,0.0,1.0,71,0.00,,,0.00,,2013-06-14 13:11:00,
2013-06-14 05:22:00,48.0,40.0,30.01,NNW,348,0.0,1.0,74,0.00,,,0.00,,2013-06-14 13:22:00,
2013-06-14 05:33:00,48.0,40.0,30.01,NNW,348,0.0,1.0,74,0.00,,,0.00,,2013-06-14 13:33:00,
2013-06-14 05:43:00,48.0,40.0,30.01,NNW,348,0.0,1.0,74,0.00,,,0.00,,2013-06-14 13:43:00,
2013-06-14 05:52:00,48.0,40.0,30.01,NNW,348,0.0,1.0,73,0.00,,,0.00,,2013-06-14 13:52:00,
2013-06-14 06:02:00,48.0,40.0,30.01,NNW,348,0.0,1.0,74,0.00,,,0.00,,2013-06-14 14:02:00,
2013-06-14 06:11:00,48.0,40.0,30.01,NNW,348,0.0,0.0,75,0.00,,,0.00,,2013-06-14 14:11:00,
2013-06-14 06:22:00,48.0,40.0,30.01,NNW,348,0.0,0.0,75,0.00,,,0.00,,2013-06-14 14:22:00,
2013-06-14 06:34:00,49.0,41.0,30.02,NNW,348,0.0,0.0,75,0.00,,,0.00,,2013-06-14 14:34:00,
2013-06-14 06:43:00,51.0,42.0,30.02,NNW,348,0.0,0.0,72,0.00,,,0.00,,2013-06-14 14:43:00,
2013-06-14 06:52:00,51.0,42.0,30.02,NNW,348,0.0,0.0,72,0.00,,,0.00,,2013-06-14 14:52:00,
2013-06-14 07:01:00,55.0,44.0,30.02,NNW,348,0.0,0.0,66,0.00,,,0.00,,2013-06-14 15:01:00,
2013-06-14 07:11:00,57.0,44.0,30.03,NNW,348,0.0,0.0,61,0.00,,,0.00,,2013-06-14 15:11:00,
2013-06-14 07:22:00,57.0,44.0,30.03,NNW,348,0.0,0.0,61,0.00,,,0.00,,2013-06-14 15:22:00,
2013-06-14 07:33:00,59.0,45.0,30.03,NNW,348,0.0,0.0,60,0.00,,,0.00,,2013-06-14 15:33:00,
2013-06-14 07:43:00,62.0,43.0,30.03,NNW,348,0.0,2.0,50,0.00,,,0.00,,2013-06-14 15:43:00,
2013-06-14 07:52:00,62.0,43.0,30.03,NNW,348,0.0,2.0,50,0.00,,,0.00,,2013-06-14 15:52:00,
2013-06-14 08:01:00,61.0,42.0,30.03,ENE,69,0.0,3.0,49,0.00,,,0.00,,2013-06-14 16:01:00,
2013-06-14 08:11:00,61.0,42.0,30.03,ENE,69,0.0,3.0,49,0.00,,,0.00,,2013-06-14 16:11:00,
2013-06-14 08:22:00,63.0,44.0,30.03,ENE,68,0.0,2.0,49,0.00,,,0.00,,2013-06-14 16:22:00,
2013-06-14 08:32:00,63.0,42.0,30.04,ENE,68,1.0,3.0,47,0.00,,,0.00,,2013-06-14 16:32:00,
2013-06-14 08:43:00,64.0,43.0,30.04,ENE,71,1.0,3.0,47,0.00,,,0.00,,2013-06-14 16:43:00,
2013-06-14 08:52:00,64.0,43.0,30.04,ENE,71,1.0,3.0,47,0.00,,,0.00,,2013-06-14 16:52:00,
2013-06-14 09:02:00,65.0,44.0,30.04,ENE,74,1.0,3.0,46,0.00,,,0.00,,2013-06-14 17:02:00,
2013-06-14 09:11:00,66.0,44.0,30.04,ESE,113,0.0,4.0,45,0.00,,,0.00,,2013-06-14 17:11:00,
2013-06-14 09:22:00,66.0,44.0,30.04,ESE,113,0.0,4.0,45,0.00,,,0.00,,2013-06-14 17:22:00,
2013-06-14 09:34:00,67.0,45.0,30.04,ESE,104,1.0,5.0,45,0.00,,,0.00,,2013-06-14 17:34:00,
2013-06-14 09:43:00,67.0,43.0,30.04,East,87,2.0,6.0,41,0.00,,,0.00,,2013-06-14 17:43:00,
2013-06-14 09:53:00,67.0,43.0,30.04,East,87,2.0,6.0,41,0.00,,,0.00,,2013-06-14 17:53:00,
2013-06-14 10:02:00,69.0,44.0,30.04,East,94,1.0,5.0,40,0.00,,,0.00,,2013-06-14 18:02:00,
2013-06-14 10:11:00,69.0,44.0,30.04,East,94,1.0,5.0,40,0.00,,,0.00,,2013-06-14 18:11:00,
2013-06-14 10:21:00,70.0,44.0,30.04,ESE,111,3.0,7.0,39,0.00,,,0.00,,2013-06-14 18:21:00,
2013-06-14 10:32:00,70.0,40.0,30.04,ESE,102,3.0,7.0,34,0.00,,,0.00,,2013-06-14 18:32:00,
2013-06-14 10:42:00,71.0,40.0,30.04,NE,45,1.0,5.0,33,0.00,,,0.00,,2013-06-14 18:42:00,
2013-06-14 10:52:00,71.0,40.0,30.04,NE,45,1.0,5.0,33,0.00,,,0.00,,2013-06-14 18:52:00,
2013-06-14 11:01:00,72.0,44.0,30.03,ESE,109,3.0,6.0,37,0.00,,,0.00,,2013-06-14 19:01:00,
2013-06-14 11:11:00,72.0,44.0,30.03,ESE,109,3.0,6.0,37,0.00,,,0.00,,2013-06-14 19:11:00,
2013-06-14 11:21:00,72.0,42.0,30.03,East,81,2.0,6.0,34,0.00,,,0.00,,2013-06-14 19:21:00,
2013-06-14 11:32:00,73.0,43.0,30.03,NE,53,0.0,4.0,34,0.00,,,0.00,,2013-06-14 19:32:00,
2013-06-14 11:42:00,73.0,41.0,30.03,NNE,29,2.0,6.0,31,0.00,,,0.00,,2013-06-14 19:42:00,
2013-06-14 11:53:00,73.0,41.0,30.03,NNE,29,2.0,6.0,31,0.00,,,0.00,,2013-06-14 19:53:00,
2013-06-14 12:01:00,74.0,43.0,30.03,NW,307,0.0,5.0,33,0.00,,,0.00,,2013-06-14 20:01:00,
2013-06-14 12:11:00,74.0,43.0,30.03,NW,307,0.0,5.0,33,0.00,,,0.00,,2013-06-14 20:11:00,
2013-06-14 12:21:00,74.0,41.0,30.03,NE,42,2.0,5.0,30,0.00,,,0.00,,2013-06-14 20:21:00,
2013-06-14 12:33:00,75.0,41.0,30.02,East,98,2.0,5.0,29,0.00,,,0.00,,2013-06-14 20:33:00,
2013-06-14 12:43:00,75.0,41.0,30.02,East,98,1.0,5.0,29,0.00,,,0.00,,2013-06-14 20:43:00,
2013-06-14 12:53:00,75.0,41.0,30.02,East,98,1.0,5.0,29,0.00,,,0.00,,2013-06-14 20:53:00,
2013-06-14 13:01:00,75.0,38.0,30.02,ESE,120,3.0,8.0,26,0.00,,,0.00,,2013-06-14 21:01:00,
2013-06-14 13:11:00,75.0,38.0,30.02,ESE,120,3.0,8.0,26,0.00,,,0.00,,2013-06-14 21:11:00,
2013-06-14 13:22:00,76.0,40.0,30.02,ENE,76,1.0,7.0,27,0.00,,,0.00,,2013-06-14 21:22:00,
2013-06-14 13:34:00,76.0,39.0,30.01,ESE,123,1.0,10.0,26,0.00,,,0.00,,2013-06-14 21:34:00,
2013-06-14 13:42:00,77.0,37.0,30.01,ESE,105,2.0,8.0,24,0.00,,,0.00,,2013-06-14 21:42:00,
2013-06-14 13:52:00,77.0,37.0,30.01,ESE,105,2.0,8.0,24,0.00,,,0.00,,2013-06-14 21:52:00,
2013-06-14 14:01:00,77.0,37.0,30.01,SE,126,2.0,6.0,24,0.00,,,0.00,,2013-06-14 22:01:00,
2013-06-14 14:11:00,77.0,37.0,30.01,SE,126,2.0,6.0,24,0.00,,,0.00,,2013-06-14 22:11:00,
2013-06-14 14:22:00,77.0,37.0,30.01,ENE,72,4.0,9.0,24,0.00,,,0.00,,2013-06-14 22:22:00,
2013-06-14 14:33:00,77.0,35.0,30.00,SE,133,1.0,7.0,22,0.00,,,0.00,,2013-06-14 22:33:00,
2013-06-14 14:43:00,77.0,35.0,30.00,SE,133,1.0,7.0,22,0.00,,,0.00,,2013-06-14 22:43:00,
2013-06-14 14:53:00,78.0,38.0,30.00,North,9,2.0,5.0,24,0.00,,,0.00,,2013-06-14 22:53:00,
2013-06-14 15:01:00,78.0,37.0,30.00,NW,309,1.0,7.0,23,0.00,,,0.00,,2013-06-14 23:01:00,
2013-06-14 15:11:00,78.0,37.0,30.00,NW,309,1.0,7.0,23,0.00,,,0.00,,2013-06-14 23:11:00,
2013-06-14 15:22:00,78.0,35.0,30.00,ESE,119,3.0,9.0,21,0.00,,,0.00,,2013-06-14 23:22:00,
2013-06-14 15:32:00,78.0,35.0,30.00,ESE,119,3.0,9.0,21,0.00,,,0.00,,2013-06-14 23:32:00,
2013-06-14 15:43:00,79.0,37.0,30.00,East,97,3.0,7.0,22,0.00,,,0.00,,2013-06-14 23:43:00,
2013-06-14 15:52:00,78.0,37.0,30.00,East,92,4.0,10.0,23,0.00,,,0.00,,2013-06-14 23:52:00,
2013-06-14 16:01:00,78.0,37.0,30.00,East,92,4.0,10.0,23,0.00,,,0.00,,2013-06-15 00:01:00,
2013-06-14 16:11:00,79.0,38.0,30.00,East,94,3.0,10.0,23,0.00,,,0.00,,2013-06-15 00:11:00,
2013-06-14 16:22:00,78.0,36.0,30.00,ENE,65,2.0,5.0,22,0.00,,,0.00,,2013-06-15 00:22:00,
2013-06-14 16:33:00,78.0,36.0,29.99,East,95,3.0,10.0,22,0.00,,,0.00,,2013-06-15 00:33:00,
2013-06-14 16:43:00,78.0,36.0,29.99,East,95,3.0,10.0,22,0.00,,,0.00,,2013-06-15 00:43:00,
2013-06-14 16:53:00,79.0,39.0,29.99,ESE,102,1.0,9.0,24,0.00,,,0.00,,2013-06-15 00:53:00,
2013-06-14 17:01:00,79.0,39.0,29.99,ESE,102,1.0,9.0,24,0.00,,,0.00,,2013-06-15 01:01:00,
2013-06-14 17:11:00,79.0,38.0,29.99,NE,51,2.0,8.0,23,0.00,,,0.00,,2013-06-15 01:11:00,
2013-06-14 17:22:00,79.0,40.0,29.98,ESE,117,3.0,9.0,25,0.00,,,0.00,,2013-06-15 01:22:00,
2013-06-14 17:33:00,79.0,40.0,29.98,ESE,117,3.0,9.0,25,0.00,,,0.00,,2013-06-15 01:33:00,
2013-06-14 17:42:00,79.0,39.0,29.98,East,87,4.0,10.0,24,0.00,,,0.00,,2013-06-15 01:42:00,
2013-06-14 17:54:00,79.0,39.0,29.98,East,87,4.0,10.0,24,0.00,,,0.00,,2013-06-15 01:54:00,
2013-06-14 18:02:00,79.0,38.0,29.98,SE,142,2.0,11.0,23,0.00,,,0.00,,2013-06-15 02:02:00,
2013-06-14 18:11:00,78.0,37.0,29.98,NNE,33,4.0,13.0,23,0.00,,,0.00,,2013-06-15 02:11:00,
2013-06-14 18:22:00,78.0,37.0,29.98,NNE,33,4.0,13.0,23,0.00,,,0.00,,2013-06-15 02:22:00,
2013-06-14 18:33:00,79.0,39.0,29.98,NE,48,5.0,10.0,24,0.00,,,0.00,,2013-06-15 02:33:00,
2013-06-14 18:42:00,79.0,36.0,29.98,SE,125,3.0,14.0,21,0.00,,,0.00,,2013-06-15 02:42:00,
2013-06-14 18:53:00,78.0,38.0,29.98,East,82,0.0,4.0,24,0.00,,,0.00,,2013-06-15 02:53:00,
2013-06-14 19:01:00,78.0,36.0,29.98,East,100,1.0,8.0,22,0.00,,,0.00,,2013-06-15 03:01:00,
2013-06-14 19:11:00,78.0,36.0,29.98,East,100,1.0,8.0,22,0.00,,,0.00,,2013-06-15 03:11:00,
2013-06-14 19:23:00,78.0,37.0,29.97,West,276,1.0,4.0,23,0.00,,,0.00,,2013-06-15 03:23:00,
2013-06-14 19:32:00,78.0,37.0,29.97,West,276,1.0,4.0,23,0.00,,,0.00,,2013-06-15 03:32:00,
2013-06-14 19:43:00,78.0,35.0,29.98,WNW,286,0.0,3.0,21,0.00,,,0.00,,2013-06-15 03:43:00,
2013-06-14 19:52:00,77.0,34.0,29.98,East,92,0.0,6.0,21,0.00,,,0.00,,2013-06-15 03:52:00,
2013-06-14 20:01:00,77.0,35.0,29.98,West,275,0.0,3.0,22,0.00,,,0.00,,2013-06-15 04:01:00,
2013-06-14 20:11:00,77.0,35.0,29.98,West,275,0.0,3.0,22,0.00,,,0.00,,2013-06-15 04:11:00,
2013-06-14 20:22:00,76.0,33.0,29.98,NE,51,0.0,3.0,21,0.00,,,0.00,,2013-06-15 04:22:00,
2013-06-14 20:33:00,76.0,36.0,29.98,NE,51,0.0,1.0,23,0.00,,,0.00,,2013-06-15 04:33:00,
2013-06-14 20:43:00,76.0,36.0,29.98,NE,51,0.0,1.0,23,0.00,,,0.00,,2013-06-15 04:43:00,
2013-06-14 20:54:00,75.0,34.0,29.98,NE,51,0.0,1.0,22,0.00,,,0.00,,2013-06-15 04:54:00,
2013-06-14 21:02:00,75.0,34.0,29.98,NE,51,0.0,1.0,22,0.00,,,0.00,,2013-06-15 05:02:00,
2013-06-14 21:12:00,75.0,34.0,29.98,NW,314,0.0,2.0,22,0.00,,,0.00,,2013-06-15 05:12:00,
2013-06-14 21:22:00,74.0,34.0,29.99,WNW,299,0.0,2.0,23,0.00,,,0.00,,2013-06-15 05:22:00,
2013-06-14 21:33:00,74.0,34.0,29.99,WNW,299,0.0,2.0,23,0.00,,,0.00,,2013-06-15 05:33:00,
2013-06-14 21:42:00,74.0,34.0,29.99,NW,313,0.0,2.0,23,0.00,,,0.00,,2013-06-15 05:42:00,
2013-06-14 21:52:00,74.0,33.0,29.99,NW,313,0.0,1.0,22,0.00,,,0.00,,2013-06-15 05:52:00,
2013-06-14 22:02:00,73.0,31.0,29.99,NW,313,0.0,0.0,21,0.00,,,0.00,,2013-06-15 06:02:00,
2013-06-14 22:12:00,73.0,31.0,29.99,NW,313,0.0,0.0,21,0.00,,,0.00,,2013-06-15 06:12:00,
2013-06-14 22:24:00,72.0,31.0,30.00,NW,313,0.0,0.0,22,0.00,,,0.00,,2013-06-15 06:24:00,
2013-06-14 22:33:00,71.0,30.0,30.01,NW,313,0.0,0.0,22,0.00,,,0.00,,2013-06-15 06:33:00,
2013-06-14 22:43:00,71.0,30.0,30.01,NW,313,0.0,0.0,22,0.00,,,0.00,,2013-06-15 06:43:00,
2013-06-14 22:53:00,71.0,32.0,30.01,NW,313,0.0,0.0,24,0.00,,,0.00,,2013-06-15 06:53:00,
2013-06-14 23:01:00,71.0,32.0,30.01,NW,313,0.0,0.0,24,0.00,,,0.00,,2013-06-15 07:01:00,
2013-06-14 23:11:00,70.0,33.0,30.01,NW,313,0.0,0.0,25,0.00,,,0.00,,2013-06-15 07:11:00,
2013-06-14 23:23:00,68.0,35.0,30.02,NW,313,0.0,0.0,30,0.00,,,0.00,,2013-06-15 07:23:00,
2013-06-14 23:32:00,68.0,35.0,30.02,NW,313,0.0,0.0,30,0.00,,,0.00,,2013-06-15 07:32:00,
2013-06-14 23:43:00,66.0,36.0,30.02,NW,313,0.0,0.0,33,0.00,,,0.00,,2013-06-15 07:43:00,
2013-06-14 23:53:00,65.0,37.0,30.02,NW,313,0.0,0.0,35,0.00,,,0.00,,2013-06-15 07:53:00,